Terminal Aerodrome Forecast
Issued by NWS

Home | Current Version | Previous Version | Text Only | Print | Product List | Glossary On
Versions: 1 2 3 4 5 6 7 8 9 10 11 12 13 14 15 16 17 18
000
FTUS45 KFGZ 011100
TAFGCN
TAF
KGCN 011128Z 0112/0212 VRB03KT P6SM FEW120 BKN200
     FM011800 28007KT P6SM SCT070
      TEMPO 0120/0124 VRB15G25KT 5SM TSRA BKN060CB
     FM020000 VRB05KT P6SM BKN080 PROB30 0200/0204 -SHRA BKN050
     FM020500 VRB03KT P6SM SCT100=

USA.gov is the U.S. government's official web portal to all federal, state and local government web resources and services.